Tracking 28790 objects as of 19-Apr-2024
HD Live streaming from Space Station
objects crossing your sky now

FENGYUN 1C DEB

Track FENGYUN 1C DEB now!
10-day predictions


NORAD ID: 37473
Int'l Code: 1999-025EJT
Perigee: 450.5 km
Apogee: 676.5 km
Inclination: 99.2 °
Period: 95.8 minutes
Semi major axis: 6934 km
RCS: 0.0018 m2 (small)
Launch date: May 10, 1999
Source: People's Republic of China (PRC)
Launch site: Taiyaun Space Center, China (TSC)

Note: This is SATELLITE DEBRIS
Your satellite tracking list
Your tracking list is empty




NASA's NSSDC Master Catalog

Two Line Element Set (TLE):
1 37473U 99025EJT 24107.96138710  .00165821  00000-0  89306-2 0  9999
2 37473  99.2235 293.2884 0163003 209.9585 149.2233 15.03420165576822
Source of the keplerian elements: AFSPC